Location: Aydie
(43.5695°N, 0.1043°W)
Time: 12:18:17
(UTC+00:00)

SMAP - Pass Details

Date: 17 November 2025
Orbit: 681 x 683 km, 98.1° (Epoch: 11 December)

Event Time Altitude Azimuth Distance (km) Brightness Sun altitude
Rises 17:34:17 0° 172° (S) 3,031 6.5 -11.1°
Reaches altitude 10° 17:36:32 10° 175° (S) 2,120 5.7 -11.5°
Maximum altitude 17:41:09 68° 258° (WSW) 739 3.5 -12.3°
Drops below altitude 10° 17:45:48 10° 342° (NNW) 2,136 5.7 -13.1°
Sets 17:48:04 0° 345° (NNW) 3,055 6.4 -13.5°
